WD4ITN Weather Reports


Display with metric or nautical units.
time (UTC)temp
F
wind
direction
speed
MPH
gust
MPH
rain 1hr
in
rain 24hr
in
rain mn
in
humidity
%
barometer
mb
20260510043329 47 225 6.0 0.0 0.00 0.00 0.00 86 1012.2
20260510042823 47 228 6.0 0.0 0.00 0.00 0.00 85 1012.2
20260510042321 47 223 6.0 0.0 0.00 0.00 0.00 84 1012.2
20260510041822 48 221 6.0 0.0 0.00 0.00 0.00 83 1012.2
20260510041318 48 223 5.0 0.0 0.00 0.00 0.00 82 1012.1
20260510040818 49 229 5.0 0.0 0.00 0.00 0.00 83 1012.0
20260510040316 49 244 4.0 0.0 0.00 0.00 0.00 82 1012.0
20260510035814 49 240 4.0 0.0 0.00 0.00 0.00 81 1011.8
20260510035319 49 229 4.0 0.0 0.00 0.00 0.00 81 1011.8
20260510034836 49 243 5.0 0.0 0.00 0.00 0.00 80 1012.0
20260510034331 50 215 5.0 0.0 0.00 0.00 0.00 80 1011.8
20260510033828 50 218 5.0 0.0 0.00 0.00 0.00 80 1011.9
20260510033315 50 225 5.0 0.0 0.00 0.00 0.00 79 1011.9
20260510032818 51 223 4.0 0.0 0.00 0.00 0.00 77 1011.7
20260510032316 51 225 4.0 0.0 0.00 0.00 0.00 78 1011.8
20260510031815 51 248 4.0 0.0 0.00 0.00 0.00 78 1011.7
20260510031333 51 233 5.0 0.0 0.00 0.00 0.00 77 1011.8
20260510030829 51 180 5.0 0.0 0.00 0.00 0.00 77 1011.8
20260510030327 50 214 4.0 0.0 0.00 0.00 0.00 77 1011.8
20260510025825 50 258 3.0 0.0 0.00 0.00 0.00 77 1011.7
20260510025328 50 202 2.0 0.0 0.00 0.00 0.00 77 1011.8
20260510024820 50 242 2.0 0.0 0.00 0.00 0.00 77 1011.7
20260510024318 50 171 1.0 0.0 0.00 0.00 0.00 78 1011.8
20260510023839 50 234 0.0 0.0 0.00 0.00 0.00 79 1011.7
20260510023327 49 153 0.0 0.0 0.00 0.00 0.00 78 1011.7
20260510022828 50 153 0.0 0.0 0.00 0.00 0.00 77 1011.7
20260510022325 50 232 0.0 0.0 0.00 0.00 0.00 77 1011.6
20260510021815 50 232 0.0 0.0 0.00 0.00 0.00 77 1011.6
20260510021323 50 232 1.0 0.0 0.00 0.00 0.00 76 1011.4
20260510020837 51 232 1.0 0.0 0.00 0.00 0.00 76 1011.3
20260510020330 51 212 0.0 0.0 0.00 0.00 0.00 74 1011.2
20260510015826 51 220 1.0 0.0 0.00 0.00 0.00 73 1011.2
20260510015323 52 225 2.0 0.0 0.00 0.00 0.00 72 1011.2
20260510014839 52 225 1.0 0.0 0.00 0.00 0.00 72 1011.0
20260510014327 53 221 0.0 0.0 0.00 0.00 0.00 71 1010.8
20260510013827 53 221 0.0 0.0 0.00 0.00 0.00 69 1010.8
20260510013322 54 221 0.0 0.0 0.00 0.00 0.00 68 1010.7
20260510012820 54 221 1.0 0.0 0.00 0.00 0.00 67 1010.6
20260510012322 55 242 2.0 0.0 0.00 0.00 0.00 67 1010.5
20260510011814 55 221 3.0 0.0 0.00 0.00 0.00 66 1010.4
20260510011315 55 238 3.0 0.0 0.00 0.00 0.00 65 1010.3
20260510010832 56 208 3.0 0.0 0.00 0.00 0.00 65 1010.2
20260510010330 56 238 4.0 0.0 0.00 0.00 0.00 64 1010.2
20260510005827 56 229 4.0 0.0 0.00 0.00 0.00 64 1010.2
20260510005325 56 235 5.0 0.0 0.00 0.00 0.00 64 1010.1
20260510004820 56 215 4.0 0.0 0.00 0.00 0.00 63 1010.1
20260510004316 56 219 4.0 0.0 0.00 0.00 0.00 63 1009.8
20260510003836 57 232 4.0 0.0 0.00 0.00 0.00 63 1009.8
20260510003324 57 229 4.0 0.0 0.00 0.00 0.00 62 1009.7
20260510002821 57 234 4.0 0.0 0.00 0.00 0.00 61 1009.6
20260510002317 58 215 3.0 0.0 0.00 0.00 0.00 60 1009.5
20260510001838 58 221 3.0 0.0 0.00 0.00 0.00 59 1009.5
20260510001332 59 226 2.0 0.0 0.00 0.00 0.00 59 1009.4
20260510000829 59 239 2.0 0.0 0.00 0.00 0.00 57 1009.3
20260510000320 60 243 1.0 0.0 0.00 0.00 0.00 57 1009.2
20260509235818 60 255 2.0 0.0 0.00 0.00 0.00 56 1009.1
20260509235315 61 229 2.0 0.0 0.00 0.00 0.00 54 1009.1
20260509234834 61 192 2.0 0.0 0.00 0.00 0.00 55 1008.9
20260509234321 62 246 3.0 0.0 0.00 0.00 0.00 54 1009.0
20260509233824 62 302 5.0 0.0 0.00 0.00 0.00 53 1009.0
20260509233316 62 242 4.0 0.0 0.00 0.00 0.00 53 1009.0
20260509232820 62 247 2.0 0.0 0.00 0.00 0.00 53 1009.0
20260509232318 63 225 3.0 0.0 0.00 0.00 0.00 53 1009.0
20260509231836 63 271 5.0 0.0 0.00 0.00 0.00 51 1009.1
20260509231329 63 248 5.0 0.0 0.00 0.00 0.00 52 1009.1
20260509230827 63 239 5.0 0.0 0.00 0.00 0.00 51 1009.2
20260509230329 64 244 5.0 0.0 0.00 0.00 0.00 50 1009.2
20260509225822 64 248 4.0 0.0 0.00 0.00 0.00 50 1009.2
20260509225320 64 274 4.0 0.0 0.00 0.00 0.00 48 1009.2
20260509224843 64 216 5.0 0.0 0.00 0.00 0.00 48 1009.3
20260509224328 64 306 6.0 0.0 0.00 0.00 0.00 49 1009.2
20260509223833 64 276 5.0 0.0 0.00 0.00 0.00 47 1009.1
20260509223333 64 250 4.0 0.0 0.00 0.00 0.00 47 1009.1
20260509222826 65 296 3.0 0.0 0.00 0.00 0.00 46 1009.1
20260509222325 65 252 2.0 0.0 0.00 0.00 0.00 45 1009.2
20260509221817 66 299 3.0 0.0 0.00 0.00 0.00 44 1009.0
20260509221330 65 244 6.0 0.0 0.00 0.00 0.00 41 1009.0
20260509220827 65 290 7.0 0.0 0.00 0.00 0.00 43 1009.1
20260509220319 64 206 7.0 0.0 0.00 0.00 0.00 43 1008.9
20260509215823 65 224 9.0 0.0 0.00 0.00 0.00 42 1008.8
20260509215322 65 235 10.0 0.0 0.00 0.00 0.00 43 1008.8
20260509214812 65 253 10.0 0.0 0.00 0.00 0.00 41 1008.8
20260509214311 65 227 13.0 0.0 0.00 0.00 0.00 44 1008.8
20260509213833 65 233 12.0 0.0 0.00 0.00 0.00 42 1008.9
20260509213331 65 285 9.0 0.0 0.00 0.00 0.00 42 1008.7
20260509212820 65 263 12.0 0.0 0.00 0.00 0.00 42 1008.7
20260509212319 65 225 12.0 0.0 0.00 0.00 0.00 43 1008.7
20260509211816 66 219 8.0 0.0 0.00 0.00 0.00 44 1008.7
20260509211317 66 288 9.0 0.0 0.00 0.00 0.00 41 1008.5
20260509210818 66 251 10.0 0.0 0.00 0.00 0.00 42 1008.6
20260509210341 66 241 9.0 0.0 0.00 0.00 0.00 43 1008.5
20260509205830 66 207 10.0 0.0 0.00 0.00 0.00 45 1008.3
20260509205327 66 247 13.0 0.0 0.00 0.00 0.00 45 1008.3
20260509204815 66 236 14.0 0.0 0.00 0.00 0.00 47 1008.4
20260509204321 67 205 13.0 0.0 0.00 0.00 0.00 47 1008.3
20260509203819 67 209 12.0 0.0 0.00 0.00 0.00 43 1008.3
20260509203340 68 215 10.0 0.0 0.00 0.00 0.00 43 1008.2
20260509202829 68 260 7.0 0.0 0.00 0.00 0.00 43 1008.2
20260509202325 66 215 8.0 0.0 0.00 0.00 0.00 46 1008.2
20260509201820 66 229 12.0 0.0 0.00 0.00 0.00 46 1008.4
20260509201320 66 237 13.0 0.0 0.00 0.00 0.00 46 1008.4
20260509200820 67 208 13.0 0.0 0.00 0.00 0.00 45 1008.2
20260509200338 67 213 10.0 0.0 0.00 0.00 0.00 44 1008.3
20260509195824 67 211 6.0 0.0 0.00 0.00 0.00 42 1008.3
20260509195321 67 275 9.0 0.0 0.00 0.00 0.00 43 1008.2
20260509194836 67 279 12.0 0.0 0.00 0.00 0.00 50 1008.3
20260509194313 67 243 12.0 0.0 0.00 0.00 0.00 45 1008.2
20260509193812 68 200 14.0 0.0 0.00 0.00 0.00 43 1008.3
20260509193333 68 244 15.0 0.0 0.00 0.00 0.00 44 1008.2
20260509192824 68 239 13.0 0.0 0.00 0.00 0.00 47 1008.2
20260509192321 69 239 13.0 0.0 0.00 0.00 0.00 47 1008.2
20260509191838 69 253 14.0 0.0 0.00 0.00 0.00 48 1008.4
20260509191326 68 240 15.0 0.0 0.00 0.00 0.00 49 1008.4
20260509190829 68 257 14.0 0.0 0.00 0.00 0.00 45 1008.4
20260509190327 67 205 11.0 0.0 0.00 0.00 0.00 57 1008.3
20260509185815 66 202 10.0 0.0 0.00 0.00 0.00 51 1008.5
20260509185321 66 182 12.0 0.0 0.00 0.00 0.00 53 1008.6
20260509184815 67 192 14.0 0.0 0.00 0.00 0.00 50 1008.6
20260509184333 67 198 12.0 0.0 0.00 0.00 0.00 53 1008.6
20260509183815 67 200 9.0 0.0 0.00 0.00 0.00 54 1008.5
20260509183337 66 180 9.0 0.0 0.00 0.00 0.00 54 1008.5
20260509182814 66 192 9.0 0.0 0.00 0.00 0.00 59 1008.4
20260509182313 65 209 7.0 0.0 0.00 0.00 0.00 58 1008.5
20260509181826 65 295 6.0 0.0 0.00 0.00 0.00 56 1008.8
20260509181329 64 243 7.0 0.0 0.00 0.00 0.00 57 1008.9
20260509180828 64 272 9.0 0.0 0.00 0.00 0.00 59 1008.8
20260509180327 63 252 9.0 0.0 0.00 0.00 0.00 58 1009.0
20260509175821 63 219 9.0 0.0 0.00 0.00 0.00 59 1009.0
20260509175319 63 209 9.0 0.0 0.00 0.00 0.00 60 1009.0
20260509174840 63 272 8.0 0.0 0.00 0.00 0.00 60 1008.9
20260509174332 63 223 8.0 0.0 0.00 0.00 0.00 58 1009.1
20260509173830 62 219 8.0 0.0 0.00 0.00 0.00 61 1009.2
20260509173322 63 259 7.0 0.0 0.00 0.00 0.00 60 1009.3
20260509172822 62 176 6.0 0.0 0.00 0.00 0.00 60 1009.1
20260509172321 62 215 8.0 0.0 0.00 0.00 0.00 60 1009.2
20260509171839 62 204 10.0 0.0 0.00 0.00 0.00 59 1009.4
20260509171326 62 250 10.0 0.0 0.00 0.00 0.00 61 1009.4
20260509170830 62 220 10.0 0.0 0.00 0.00 0.00 60 1009.4
20260509170317 61 248 12.0 0.0 0.00 0.00 0.00 58 1009.5
20260509165814 62 233 12.0 0.0 0.00 0.00 0.00 58 1009.7
20260509165320 62 207 9.0 0.0 0.00 0.00 0.00 61 1009.5
20260509164837 62 224 9.0 0.0 0.00 0.00 0.00 62 1009.3
20260509164331 62 200 9.0 0.0 0.00 0.00 0.00 62 1009.2
20260509163829 61 231 8.0 0.0 0.00 0.00 0.00 65 1009.3
20260509163326 61 236 10.0 0.0 0.00 0.00 0.00 62 1009.2
20260509162827 61 181 10.0 0.0 0.00 0.00 0.00 60 1009.1
20260509162324 61 215 9.0 0.0 0.00 0.00 0.00 61 1009.2
20260509161819 61 215 9.0 0.0 0.00 0.00 0.00 64 1009.3
20260509161335 61 226 10.0 0.0 0.00 0.00 0.00 64 1009.3
20260509160831 61 188 11.0 0.0 0.00 0.00 0.00 61 1009.3
20260509160326 61 192 12.0 0.0 0.00 0.00 0.00 59 1009.3
20260509155820 62 177 13.0 0.0 0.00 0.00 0.00 60 1009.4
20260509155322 62 181 13.0 0.0 0.00 0.00 0.00 60 1009.2
20260509154817 63 178 13.0 0.0 0.00 0.00 0.00 61 1009.2
20260509154315 62 225 12.0 0.0 0.00 0.00 0.00 64 1009.3
20260509153839 62 178 12.0 0.0 0.00 0.00 0.00 64 1009.2
20260509153327 62 170 12.0 0.0 0.00 0.00 0.00 62 1009.5
20260509152824 61 211 13.0 0.0 0.00 0.00 0.00 66 1009.5
20260509152323 61 198 12.0 0.0 0.00 0.00 0.00 62 1009.4
20260509151837 62 178 11.0 0.0 0.00 0.00 0.00 65 1009.4
20260509151323 62 193 10.0 0.0 0.00 0.00 0.00 62 1009.3
20260509150828 62 243 9.0 0.0 0.00 0.00 0.00 64 1009.5
20260509150323 61 215 9.0 0.0 0.00 0.00 0.00 66 1009.5
20260509145823 61 194 10.0 0.0 0.00 0.00 0.00 66 1008.5
20260509145320 60 193 10.0 0.0 0.00 0.00 0.00 66 1008.4
20260509144841 60 163 9.0 0.0 0.00 0.00 0.00 63 1008.5
20260509144332 60 182 9.0 0.0 0.00 0.00 0.00 66 1008.5
20260509143829 60 180 9.0 0.0 0.00 0.00 0.00 64 1008.6
20260509143323 60 201 9.0 0.0 0.00 0.00 0.00 65 1008.8
20260509142825 60 221 7.0 0.0 0.00 0.00 0.00 66 1008.7
20260509142322 60 202 6.0 0.0 0.00 0.00 0.00 66 1008.4
20260509141817 59 210 6.0 0.0 0.00 0.00 0.00 67 1008.4
20260509141315 59 197 7.0 0.0 0.00 0.00 0.00 70 1008.4
20260509140839 59 227 7.0 0.0 0.00 0.00 0.00 71 1008.5
20260509140329 58 241 7.0 0.0 0.00 0.00 0.00 73 1008.5
20260509135830 58 229 7.0 0.0 0.00 0.00 0.00 72 1008.7
20260509135325 57 223 8.0 0.0 0.00 0.00 0.00 72 1008.9
20260509134816 57 229 9.0 0.0 0.00 0.00 0.00 74 1009.1
20260509134314 57 232 8.0 0.0 0.00 0.00 0.00 76 1009.2
20260509133832 56 189 9.0 0.0 0.00 0.00 0.00 76 1009.2
20260509133322 56 230 10.0 0.0 0.00 0.00 0.00 76 1009.3
20260509132822 55 202 10.0 0.0 0.00 0.00 0.00 78 1009.5
20260509132318 54 201 9.0 0.0 0.00 0.00 0.00 78 1009.6
20260509131840 54 230 9.0 0.0 0.00 0.00 0.00 78 1009.5
20260509131314 53 232 9.0 0.0 0.00 0.00 0.00 80 1009.7
20260509130831 52 222 9.0 0.0 0.00 0.00 0.00 80 1009.6
20260509130325 52 223 9.0 0.0 0.00 0.00 0.00 81 1009.6
20260509125823 51 212 8.0 0.0 0.00 0.00 0.00 82 1009.7
20260509125324 51 211 9.0 0.0 0.00 0.00 0.00 81 1009.8
20260509124843 50 188 8.0 0.0 0.00 0.00 0.00 82 1009.8
20260509124330 49 194 6.0 0.0 0.00 0.00 0.00 85 1009.9
20260509123836 49 197 6.0 0.0 0.00 0.00 0.00 87 1009.9
20260509123328 48 211 6.0 0.0 0.00 0.00 0.00 88 1009.9
20260509122828 48 234 6.0 0.0 0.00 0.00 0.00 87 1009.9
20260509122326 47 236 6.0 0.0 0.00 0.00 0.00 88 1009.8
20260509121818 47 232 6.0 0.0 0.00 0.00 0.00 87 1009.8
20260509121316 46 231 6.0 0.0 0.00 0.00 0.00 88 1009.8
20260509120833 46 232 5.0 0.0 0.00 0.00 0.00 89 1009.7
20260509120322 46 241 5.0 0.0 0.00 0.00 0.00 89 1009.7
20260509115820 45 231 5.0 0.0 0.00 0.00 0.00 90 1009.8
20260509115323 45 223 5.0 0.0 0.00 0.00 0.00 89 1009.9
20260509114840 45 226 4.0 0.0 0.00 0.00 0.00 90 1009.7
20260509114330 44 223 3.0 0.0 0.00 0.00 0.00 90 1009.7
20260509113833 43 229 3.0 0.0 0.00 0.00 0.00 90 1009.8
20260509113332 43 221 3.0 0.0 0.00 0.00 0.00 90 1009.9
20260509112820 42 228 3.0 0.0 0.00 0.00 0.00 90 1009.9
20260509112321 42 221 3.0 0.0 0.00 0.00 0.00 90 1009.9
20260509111839 42 227 3.0 0.0 0.00 0.00 0.00 90 1010.0
20260509111333 41 231 3.0 0.0 0.00 0.00 0.00 90 1010.0
20260509110832 41 224 4.0 0.0 0.00 0.00 0.00 90 1010.0
20260509110336 41 221 4.0 0.0 0.00 0.00 0.00 90 1010.0
20260509105825 41 218 3.0 0.0 0.00 0.00 0.00 90 1010.1
20260509105329 41 220 3.0 0.0 0.00 0.00 0.00 89 1010.0
20260509104821 41 213 4.0 0.0 0.00 0.00 0.00 88 1009.9
20260509104324 41 215 5.0 0.0 0.00 0.00 0.00 88 1009.9
20260509103825 42 219 5.0 0.0 0.00 0.00 0.00 87 1009.9
20260509103313 42 229 5.0 0.0 0.00 0.00 0.00 86 1009.9
20260509102816 43 223 5.0 0.0 0.00 0.00 0.00 87 1009.8
20260509102339 42 229 6.0 0.0 0.00 0.00 0.00 88 1009.9
20260509101828 42 225 6.0 0.0 0.00 0.00 0.00 88 1009.9
20260509101325 42 239 5.0 0.0 0.00 0.00 0.00 86 1009.8
20260509100826 42 229 4.0 0.0 0.00 0.00 0.00 85 1009.8
20260509100318 42 218 4.0 0.0 0.00 0.00 0.00 85 1009.8
20260509095819 42 216 4.0 0.0 0.00 0.00 0.00 85 1009.8
20260509095336 42 181 3.0 0.0 0.00 0.00 0.00 84 1009.8
20260509094813 43 164 3.0 0.0 0.00 0.00 0.00 83 1009.8
20260509094313 43 143 4.0 0.0 0.00 0.00 0.00 82 1009.9
20260509093836 43 254 5.0 0.0 0.00 0.00 0.00 84 1010.0
20260509093326 43 237 5.0 0.0 0.00 0.00 0.00 85 1010.1
20260509092826 42 249 5.0 0.0 0.00 0.00 0.00 86 1009.9
20260509092325 41 242 6.0 0.0 0.00 0.00 0.00 86 1010.0
20260509091823 42 225 6.0 0.0 0.00 0.00 0.00 86 1010.0
20260509091323 41 229 6.0 0.0 0.00 0.00 0.00 86 1010.1
20260509090841 41 227 6.0 0.0 0.00 0.00 0.00 86 1010.1
20260509090330 42 226 6.0 0.0 0.00 0.00 0.00 87 1010.3
20260509085831 41 225 6.0 0.0 0.00 0.00 0.00 86 1010.3
20260509085329 42 228 6.0 0.0 0.00 0.00 0.00 86 1010.3
20260509084815 42 215 6.0 0.0 0.00 0.00 0.00 85 1010.4
20260509084333 42 223 6.0 0.0 0.00 0.00 0.00 85 1010.4
20260509083831 42 226 5.0 0.0 0.00 0.00 0.00 84 1010.3
20260509083319 43 221 5.0 0.0 0.00 0.00 0.00 83 1010.4
20260509082820 43 217 5.0 0.0 0.00 0.00 0.00 82 1010.3
20260509082318 43 223 4.0 0.0 0.00 0.00 0.00 81 1010.4
20260509081821 44 225 4.0 0.0 0.00 0.00 0.00 80 1010.4
20260509081319 45 236 4.0 0.0 0.00 0.00 0.00 80 1010.5
20260509080816 44 236 4.0 0.0 0.00 0.00 0.00 81 1010.5
20260509080340 44 244 4.0 0.0 0.00 0.00 0.00 81 1010.4
20260509075828 44 238 4.0 0.0 0.00 0.00 0.00 81 1010.4
20260509075331 45 236 4.0 0.0 0.00 0.00 0.00 81 1010.6
20260509074822 44 242 4.0 0.0 0.00 0.00 0.00 81 1010.5
20260509074320 44 243 5.0 0.0 0.00 0.00 0.00 82 1010.5
20260509073819 44 224 4.0 0.0 0.00 0.00 0.00 83 1010.6
20260509073338 44 236 4.0 0.0 0.00 0.00 0.00 84 1010.6
20260509072833 43 228 4.0 0.0 0.00 0.00 0.00 84 1010.7
20260509072336 44 228 5.0 0.0 0.00 0.00 0.00 84 1010.7
20260509071825 43 236 5.0 0.0 0.00 0.00 0.00 83 1010.7
20260509071325 43 231 5.0 0.0 0.00 0.00 0.00 84 1010.7
20260509070824 43 238 5.0 0.0 0.00 0.00 0.00 84 1010.9
20260509070319 42 225 5.0 0.0 0.00 0.00 0.00 85 1010.9
20260509065817 42 234 5.0 0.0 0.00 0.00 0.00 85 1011.0
20260509065333 42 236 5.0 0.0 0.00 0.00 0.00 85 1010.9
20260509064830 42 217 5.0 0.0 0.00 0.00 0.00 84 1010.9
20260509064325 42 231 4.0 0.0 0.00 0.00 0.00 83 1010.9
20260509063826 42 229 4.0 0.0 0.00 0.00 0.00 82 1011.0
20260509063314 43 227 5.0 0.0 0.00 0.00 0.00 82 1010.9
20260509062833 42 229 5.0 0.0 0.00 0.00 0.00 82 1011.0
20260509062314 43 233 4.0 0.0 0.00 0.00 0.00 81 1011.0
20260509061824 43 218 4.0 0.0 0.00 0.00 0.00 81 1011.2
20260509061322 43 236 5.0 0.0 0.00 0.00 0.00 81 1011.2
20260509060819 43 233 5.0 0.0 0.00 0.00 0.00 82 1011.2
20260509060336 43 225 5.0 0.0 0.00 0.00 0.00 82 1011.3
20260509055827 43 226 5.0 0.0 0.00 0.00 0.00 80 1011.3
20260509055323 43 232 4.0 0.0 0.00 0.00 0.00 80 1011.4
20260509054814 43 238 4.0 0.0 0.00 0.00 0.00 80 1011.4
20260509054316 43 228 4.0 0.0 0.00 0.00 0.00 80 1011.4
20260509053823 44 215 4.0 0.0 0.00 0.00 0.00 80 1011.5
20260509053340 43 211 5.0 0.0 0.00 0.00 0.00 81 1011.6
20260509052829 43 210 5.0 0.0 0.00 0.00 0.00 81 1011.6
20260509052325 43 221 5.0 0.0 0.00 0.00 0.00 80 1011.7
20260509051830 44 230 5.0 0.0 0.00 0.00 0.00 80 1011.6
20260509051315 44 240 5.0 0.0 0.00 0.00 0.00 80 1011.6
20260509050823 44 232 4.0 0.0 0.00 0.00 0.00 79 1011.5
20260509050317 44 235 4.0 0.0 0.00 0.00 0.00 80 1011.5
20260509045820 43 234 4.0 0.0 0.00 0.00 0.00 80 1011.5
20260509045320 43 215 4.0 0.0 0.00 0.00 0.00 80 1011.5
20260509044821 43 216 4.0 0.0 0.00 0.00 0.00 80 1011.6
20260509044319 43 224 4.0 0.0 0.00 0.00 0.00 80 1011.6
20260509043840 43 219 4.0 0.0 0.00 0.00 0.00 78 1011.6